Starlink 5716

operational
NORAD ID: 56504 Int'l Des: 2023-065 Owner: SPXS Country: US Constellation: starlink
LEOCIRCULAR

About Starlink 5716

Description loading...

Live Position

Loading 3D Globe...

Upcoming Passes

Altitude History

Altitude vs Time

uPlot chart will show altitude changes over time

Two-Line Element Set

1 56504U 23065B 26036.99798839 -.00000010 00000-0 14327-4 0 9998
2 56504 43.0056 22.8735 0001172 263.8382 96.2327 15.02535678151851
Epoch: Feb 5, 2026 • Age: 27 hours

Current Status

Altitude 560.9 km
Velocity 7.58 km/s
Sub-Earth Point -12.00°S, 178.55°W
Launch Date May 14, 2023
Age 2.7 years
Type internet

Technical Details

Classification Payload
Mass 305.00 kg
Dry Mass 290.00 kg
Total Mass 305.00 kg
Length 0.20 m
Diameter 2.80 m
Span 9.00 m
Shape Box + pan
Manufacturer SPXS
Bus Type Starlink
Phase Status In Orbit
Owner/State SPXS/US

Large Constellations

Loading constellations...